Simultaneous Nadir Overpasses (SNOs) Predictions

Prediction of SNOs between LANDSAT-8 and NOAA-19 Satellite Orbit:

Table of predicted SNOs for the next 14.0 days since TLE Epoch: 6/4/2022
Index Date (LANDSAT-8) Time (LANDSAT-8) Lat,Lon (LANDSAT-8) SZA (LANDSAT-8 ) Date (NOAA-19) Time (NOAA-19) Lat,Lon (NOAA-19) SZA (NOAA-19 ) Distance(km) Time Diff (sec)
1 06/06/2022 08:27:19 -80.80, -91.15 120.02 06/06/2022 08:27:05 -80.79, -91.22 120.05 2.31 14
2 06/08/2022 14:01:05 80.79, 5.24 59.73 06/08/2022 14:00:06 80.79, 5.42 59.73 3.17 59
3 06/08/2022 14:50:32 -80.79, 172.87 120.28 06/08/2022 14:51:01 -80.79, 172.85 120.27 0.32 29
4 06/10/2022 20:24:17 80.80, -90.47 59.56 06/10/2022 20:24:02 80.79, -90.44 59.55 0.86 15
5 06/10/2022 21:13:45 -80.77, 76.84 120.51 06/10/2022 21:14:57 -80.79, 76.89 120.45 2.35 72
6 06/13/2022 01:58:03 -80.80, 6.12 120.60 06/13/2022 01:56:54 -80.80, 6.07 120.63 0.85 69
7 06/13/2022 02:47:29 80.80, 173.78 59.41 06/13/2022 02:47:58 80.79, 173.64 59.40 2.62 29
8 06/15/2022 08:21:15 -80.80, -89.66 120.72 06/15/2022 08:20:49 -80.79, -89.59 120.73 1.60 26
9 06/15/2022 09:10:41 80.80, 77.98 59.28 06/15/2022 09:11:53 80.78, 78.04 59.31 2.23 72
10 06/17/2022 13:54:59 80.79, 6.82 59.19 06/17/2022 13:53:50 80.80, 6.83 59.17 1.02 69



Historial Predications of SNOs between LANDSAT-8 and NOAA-19
